| time (UTC) | temp F | wind direction | speed MPH | gust MPH | rain 1hr in | rain 24hr in | rain mn in | humidity % | barometer mb |
| 20260831101558 | 63 | 0.0 | 0.0 | 0.00 | 0.00 | 0.00 | 83 | 1017.0 | |
| 20260831100053 | 63 | 0.0 | 0.0 | 0.00 | 0.00 | 0.00 | 79 | 1017.0 | |
| 20260831094549 | 64 | 0.0 | 0.0 | 0.00 | 0.00 | 0.00 | 74 | 1017.0 | |
| 20260831093045 | 64 | 0.0 | 0.0 | 0.00 | 0.00 | 0.00 | 74 | 1016.9 | |
| 20260831091542 | 64 | 0.0 | 0.0 | 0.00 | 0.00 | 0.00 | 73 | 1017.0 | |
| 20260831090037 | 64 | 0.0 | 0.0 | 0.00 | 0.00 | 0.00 | 73 | 1017.0 | |
| 20260831084532 | 65 | 0.0 | 0.0 | 0.00 | 0.00 | 0.00 | 76 | 1017.0 | |
| 20260831083037 | 65 | 0.0 | 0.0 | 0.00 | 0.00 | 0.00 | 77 | 1017.1 | |
| 20260831081523 | 66 | 0.0 | 0.0 | 0.00 | 0.00 | 0.00 | 76 | 1017.2 | |
| 20260831080018 | 66 | 0.0 | 0.0 | 0.00 | 0.00 | 0.00 | 77 | 1017.1 | |
| 20260831074514 | 66 | 0.0 | 0.0 | 0.00 | 0.00 | 0.00 | 74 | 1017.1 | |
| 20260831073014 | 67 | 0.0 | 0.0 | 0.00 | 0.00 | 0.00 | 82 | 1017.1 | |
| 20260831071505 | 67 | 0.0 | 0.0 | 0.00 | 0.00 | 0.00 | 83 | 1017.2 | |
| 20260831070002 | 67 | 0.0 | 0.0 | 0.00 | 0.00 | 0.00 | 83 | 1017.2 | |
| 20260831064557 | 68 | 0.0 | 0.0 | 0.00 | 0.00 | 0.00 | 83 | 1017.3 | |
| 20260831063053 | 68 | 0.0 | 0.0 | 0.00 | 0.00 | 0.00 | 82 | 1017.3 | |
| 20260831061550 | 68 | 0.0 | 0.0 | 0.00 | 0.00 | 0.00 | 82 | 1017.2 | |
| 20260831060044 | 69 | 0.0 | 0.0 | 0.00 | 0.00 | 0.00 | 80 | 1017.1 | |
| 20260831054539 | 69 | 0.0 | 0.0 | 0.00 | 0.00 | 0.00 | 80 | 1017.1 | |
| 20260831053038 | 70 | 0.0 | 0.0 | 0.00 | 0.00 | 0.00 | 79 | 1017.0 | |
| 20260831051530 | 70 | 0.0 | 0.0 | 0.00 | 0.00 | 0.00 | 78 | 1016.9 | |
| 20260831050026 | 71 | 0.0 | 0.0 | 0.00 | 0.00 | 0.00 | 77 | 1016.8 | |
| 20260831044525 | 71 | 0.0 | 0.0 | 0.00 | 0.00 | 0.00 | 76 | 1016.8 | |
| 20260831043017 | 72 | 0.0 | 0.0 | 0.00 | 0.00 | 0.00 | 75 | 1016.7 | |
| 20260831041529 | 73 | 0.0 | 0.0 | 0.00 | 0.00 | 0.00 | 73 | 1016.7 | |
| 20260831040010 | 73 | 0.0 | 0.0 | 0.00 | 0.00 | 0.00 | 71 | 1016.5 | |
| 20260831034504 | 74 | 0.0 | 0.0 | 0.00 | 0.00 | 0.00 | 70 | 1016.3 | |
| 20260831033100 | 74 | 0.0 | 0.0 | 0.00 | 0.00 | 0.00 | 68 | 1016.1 | |
| 20260831031555 | 75 | 0.0 | 0.0 | 0.00 | 0.00 | 0.00 | 66 | 1016.0 | |
| 20260831030059 | 76 | 0.0 | 0.0 | 0.00 | 0.00 | 0.00 | 65 | 1015.8 | |
| 20260831024615 | 76 | 0.0 | 0.0 | 0.00 | 0.00 | 0.00 | 60 | 1015.8 | |
| 20260831023052 | 77 | 0.0 | 0.0 | 0.00 | 0.00 | 0.00 | 56 | 1015.8 | |
| 20260831021554 | 79 | 0.0 | 0.0 | 0.00 | 0.00 | 0.00 | 54 | 1015.8 | |
| 20260831020051 | 80 | 0.0 | 0.0 | 0.00 | 0.00 | 0.00 | 52 | 1015.6 | |
| 20260831014550 | 81 | 0.0 | 0.0 | 0.00 | 0.00 | 0.00 | 47 | 1015.6 | |
| 20260831013105 | 81 | 0.0 | 0.0 | 0.00 | 0.00 | 0.00 | 49 | 1015.5 | |
| 20260831011554 | 83 | 0.0 | 0.0 | 0.00 | 0.00 | 0.00 | 45 | 1015.5 | |
| 20260831010100 | 84 | 0.0 | 0.0 | 0.00 | 0.00 | 0.00 | 39 | 1015.5 | |
| 20260831004538 | 85 | 0.0 | 0.0 | 0.00 | 0.00 | 0.00 | 38 | 1015.5 | |
| 20260831003036 | 86 | 0.0 | 0.0 | 0.00 | 0.00 | 0.00 | 37 | 1015.5 | |
| 20260831001532 | 86 | 0.0 | 0.0 | 0.00 | 0.00 | 0.00 | 37 | 1015.6 | |
| 20260831000030 | 86 | 0.0 | 0.0 | 0.00 | 0.00 | 0.00 | 38 | 1015.5 | |
| 20260830234523 | 86 | 0.0 | 0.0 | 0.00 | 0.00 | 0.00 | 34 | 1015.5 | |
| 20260830233022 | 87 | 0.0 | 0.0 | 0.00 | 0.00 | 0.00 | 30 | 1015.6 | |
| 20260830231512 | 88 | 0.0 | 0.0 | 0.00 | 0.00 | 0.00 | 30 | 1015.5 | |
| 20260830230007 | 89 | 0.0 | 0.0 | 0.00 | 0.00 | 0.00 | 31 | 1015.5 | |
| 20260830224502 | 89 | 0.0 | 0.0 | 0.00 | 0.00 | 0.00 | 30 | 1015.6 | |
| 20260830223132 | 89 | 0.0 | 0.0 | 0.00 | 0.00 | 0.00 | 33 | 1015.6 | |
| 20260830221555 | 90 | 0.0 | 0.0 | 0.00 | 0.00 | 0.00 | 32 | 1015.8 | |
| 20260830220049 | 91 | 0.0 | 0.0 | 0.00 | 0.00 | 0.00 | 32 | 1016.0 | |
| 20260830214545 | 91 | 0.0 | 0.0 | 0.00 | 0.00 | 0.00 | 35 | 1016.0 | |
| 20260830213040 | 91 | 0.0 | 0.0 | 0.00 | 0.00 | 0.00 | 35 | 1016.2 | |
| 20260830211536 | 90 | 0.0 | 0.0 | 0.00 | 0.00 | 0.00 | 34 | 1016.1 | |
| 20260830210031 | 91 | 0.0 | 0.0 | 0.00 | 0.00 | 0.00 | 35 | 1016.5 | |
| 20260830204527 | 90 | 0.0 | 0.0 | 0.00 | 0.00 | 0.00 | 38 | 1016.6 | |
| 20260830203023 | 90 | 0.0 | 0.0 | 0.00 | 0.00 | 0.00 | 39 | 1016.6 | |
| 20260830201519 | 91 | 0.0 | 0.0 | 0.00 | 0.00 | 0.00 | 40 | 1016.6 | |
| 20260830200014 | 90 | 0.0 | 0.0 | 0.00 | 0.00 | 0.00 | 39 | 1016.7 | |
| 20260830194510 | 89 | 0.0 | 0.0 | 0.00 | 0.00 | 0.00 | 39 | 1016.7 | |
| 20260830193005 | 89 | 0.0 | 0.0 | 0.00 | 0.00 | 0.00 | 39 | 1016.8 | |
| 20260830191501 | 91 | 0.0 | 0.0 | 0.00 | 0.00 | 0.00 | 38 | 1016.9 | |
| 20260830190057 | 89 | 0.0 | 0.0 | 0.00 | 0.00 | 0.00 | 41 | 1016.9 | |
| 20260830184605 | 89 | 0.0 | 0.0 | 0.00 | 0.00 | 0.00 | 40 | 1017.1 | |
| 20260830183051 | 89 | 0.0 | 0.0 | 0.00 | 0.00 | 0.00 | 40 | 1017.1 | |
| 20260830181545 | 89 | 0.0 | 0.0 | 0.00 | 0.00 | 0.00 | 36 | 1017.1 | |
| 20260830180039 | 89 | 0.0 | 0.0 | 0.00 | 0.00 | 0.00 | 32 | 1017.1 | |
| 20260830174539 | 88 | 0.0 | 0.0 | 0.00 | 0.00 | 0.00 | 36 | 1016.9 | |
| 20260830173032 | 87 | 0.0 | 0.0 | 0.00 | 0.00 | 0.00 | 40 | 1016.8 | |
| 20260830171527 | 86 | 0.0 | 0.0 | 0.00 | 0.00 | 0.00 | 43 | 1016.8 | |
| 20260830170022 | 85 | 0.0 | 0.0 | 0.00 | 0.00 | 0.00 | 48 | 1016.7 | |
| 20260830164518 | 85 | 0.0 | 0.0 | 0.00 | 0.00 | 0.00 | 45 | 1016.6 | |
| 20260830163019 | 83 | 0.0 | 0.0 | 0.00 | 0.00 | 0.00 | 48 | 1016.6 | |
| 20260830161509 | 82 | 0.0 | 0.0 | 0.00 | 0.00 | 0.00 | 49 | 1016.5 | |
| 20260830160004 | 81 | 0.0 | 0.0 | 0.00 | 0.00 | 0.00 | 47 | 1016.6 | |
| 20260830154601 | 80 | 0.0 | 0.0 | 0.00 | 0.00 | 0.00 | 50 | 1016.5 | |
| 20260830153056 | 79 | 0.0 | 0.0 | 0.00 | 0.00 | 0.00 | 51 | 1016.5 | |
| 20260830151555 | 78 | 0.0 | 0.0 | 0.00 | 0.00 | 0.00 | 51 | 1016.4 | |
| 20260830150047 | 76 | 0.0 | 0.0 | 0.00 | 0.00 | 0.00 | 52 | 1016.5 | |
| 20260830144547 | 73 | 0.0 | 0.0 | 0.00 | 0.00 | 0.00 | 56 | 1016.4 | |
| 20260830143041 | 71 | 0.0 | 0.0 | 0.00 | 0.00 | 0.00 | 58 | 1016.3 | |
| 20260830141540 | 69 | 0.0 | 0.0 | 0.00 | 0.00 | 0.00 | 61 | 1016.3 | |
| 20260830140029 | 69 | 0.0 | 0.0 | 0.00 | 0.00 | 0.00 | 60 | 1016.3 | |
| 20260830134535 | 68 | 0.0 | 0.0 | 0.00 | 0.00 | 0.00 | 61 | 1016.2 | |
| 20260830133021 | 68 | 0.0 | 0.0 | 0.00 | 0.00 | 0.00 | 64 | 1016.1 | |
| 20260830131517 | 68 | 0.0 | 0.0 | 0.00 | 0.00 | 0.00 | 65 | 1016.0 | |
| 20260830130015 | 69 | 0.0 | 0.0 | 0.00 | 0.00 | 0.00 | 64 | 1016.0 | |
| 20260830124508 | 69 | 0.0 | 0.0 | 0.00 | 0.00 | 0.00 | 63 | 1015.9 | |
| 20260830123010 | 69 | 0.0 | 0.0 | 0.00 | 0.00 | 0.00 | 61 | 1015.9 | |
| 20260830121603 | 70 | 0.0 | 0.0 | 0.00 | 0.00 | 0.00 | 61 | 1015.8 | |
| 20260830120100 | 70 | 0.0 | 0.0 | 0.00 | 0.00 | 0.00 | 60 | 1015.7 | |
| 20260830114551 | 70 | 0.0 | 0.0 | 0.00 | 0.00 | 0.00 | 61 | 1015.7 | |
| 20260830113046 | 70 | 0.0 | 0.0 | 0.00 | 0.00 | 0.00 | 60 | 1015.8 | |
| 20260830111542 | 71 | 0.0 | 0.0 | 0.00 | 0.00 | 0.00 | 59 | 1015.9 | |
| 20260830110043 | 71 | 0.0 | 0.0 | 0.00 | 0.00 | 0.00 | 58 | 1015.7 | |
| 20260830104533 | 71 | 0.0 | 0.0 | 0.00 | 0.00 | 0.00 | 57 | 1015.5 | |
| 20260830103028 | 71 | 0.0 | 0.0 | 0.00 | 0.00 | 0.00 | 57 | 1015.6 |